User: anonymous   Login
Location: Unspecified
(0.0000°N, 0.0000°E)
Time: 23:10:24
(UTC+01:00)
Language:

Resurs 01 Rocket - Orbit

View from above orbital plane
View from above orbital plane
View from above satellite
View from above satellite

Ground track
Ground track

The orbit data is extracted from the following two-line orbital elements,

1 23343U 94074B   15085.53097341  .00000559  00000-0  88093-4 0  9991
2 23343 098.2231 099.5037 0007651 150.0978 010.9034 14.76452438 96752
Epoch (UTC): 26 March 2015 12:44:36
Eccentricity: 0.0007651
inclination: 98.2231°
perigee height: 635 km
apogee height: 646 km
right ascension of ascending node: 99.5037°
argument of perigee: 150.0978°
revolutions per day: 14.76452438
mean anomaly at epoch: 10.9034°
orbit number at epoch: 9675

The dashed part of the orbit path shows where the satellite is in the earth's shadow,  

DLR